Home > Weather > Aachen > Past weeks

Flag for Germany Weather for the Past 2 Weeks in Aachen, North Rhine-Westphalia, Germany

Now
39 °F

Passing clouds.


Feels Like: 32 °F
Forecast: 33 / 43 °F
Wind: 12 mph from Southwest

Location: Geilenkirchen Airport

Current Time: Feb 11, 2016 at 7:36:46 AM

Latest Report: Feb 11, 2016 at 6:50 AM


Visibility: 6 mi

Pressure: 29.65 "Hg

Humidity: 87%

Dew point: 36 °F

Location of AachenLocation

Historic Weather in Aachen — Graph

°F

Aachen Temperature Yesterday

Maximum temperature yesterday: 41 °F (at 12:50 PM)
Minimum temperature yesterday: 37 °F (at 4:50 AM)
Average temperature yesterday: 39 °F

High & Low Weather Summary for the Past Weeks

 TemperatureHumidityPressure
High54 °F (Jan 27, 1:50 PM)100% (Jan 31, 8:50 PM)30.33 "Hg (Jan 31, 8:50 PM)
Low37 °F (Feb 3, 9:50 AM)57% (Jan 28, 2:50 PM)28.82 "Hg (Feb 9, 2:50 PM)
Average45 °F84%29.91 "Hg
* Reported Jan 27 5:50 AM — Feb 11 5:50 AM, Aachen, Weather by CustomWeather, © 2016

Note: Actual official high and low records may vary slightly from our data, if they occured in-between our weather recording intervals... More about our weather records

Advertising

Aachen Weather History for the Previous 24 Hours

 ConditionsComfort  
Time TempWeatherWind HumidityBarometerVisibility
5:50 AM
Thu, Feb 11
39 °FPassing clouds.10 mph93%29.65 "Hg5 mi
4:50 AM39 °FPassing clouds.8 mph93%29.62 "Hg5 mi
3:50 AM39 °FPassing clouds.5 mph93%29.62 "Hg5 mi
2:50 AM39 °FPassing clouds.7 mph93%29.62 "HgN/A
1:50 AM39 °FClear.10 mph93%29.62 "Hg10 mi
12:50 AM39 °FPartly cloudy.9 mph93%29.59 "Hg4 mi
11:50 PM
Wed, Feb 10
39 °FSprinkles. Partly cloudy.13 mph93%29.56 "Hg5 mi
10:50 PM39 °FPassing clouds.12 mph93%29.56 "HgN/A
9:50 PM39 °FPassing clouds.12 mph93%29.53 "HgN/A
8:50 PM39 °FPassing clouds.12 mph93%29.53 "HgN/A
7:50 PM39 °FPassing clouds.14 mph93%29.50 "HgN/A
6:50 PM39 °FRain showers. Passing clouds.15 mph93%29.47 "Hg5 mi
5:50 PM41 °FPartly cloudy.15 mph87%29.42 "HgN/A
4:50 PM41 °FScattered clouds.14 mph87%29.42 "HgN/A
3:50 PM41 °FBroken clouds.18 mph87%29.39 "HgN/A
2:50 PM39 °FBroken clouds.13 mph93%29.39 "HgN/A
1:50 PM39 °FDrizzle. Partly sunny.16 mph93%29.36 "Hg5 mi
12:50 PM41 °FDrizzle. Broken clouds.12 mph87%29.36 "Hg4 mi
11:50 AM39 °FDrizzle. Broken clouds.13 mph93%29.36 "HgN/A
10:50 AM39 °FDrizzle. Broken clouds.15 mph87%29.33 "HgN/A
9:50 AM39 °FLight rain. Cloudy.17 mph87%29.30 "HgN/A
8:50 AM39 °FSprinkles. Partly sunny.16 mph87%29.30 "HgN/A
7:50 AM37 °FPassing clouds.16 mph87%29.27 "HgN/A
Weather by CustomWeather, © 2016

See weather overviewHow to use our weather pages